Terminal Aerodrome Forecast
Issued by NWS Greer, SC

Home | Current Version | Previous Version | Text Only | Print | Product List | Glossary On
Versions: 1 2 3 4 5 6 7 8 9 10 11 12 13 14 15 16 17 18 19 20 21 22 23 24 25 26 27 28 29 30 31 32 33 34 35 36 37 38 39 40 41 42 43 44 45 46 47
000
FTUS42 KGSP 140500
TAFCLT
TAF
KCLT 140540Z 1406/1506 17005KT P6SM BKN200
     FM140900 21005KT P6SM SCT060
     FM141800 21009KT P6SM BKN050 PROB30 1422/1502 4SM TSRA BKN040CB
     FM150200 20004KT P6SM BKN050=

USA.gov is the U.S. government's official web portal to all federal, state and local government web resources and services.